This is the latest recevied weather packets stored in our database for station/object KF7SOJ. If no packets are shown the sender has not sent any weather packets the latest 10 day(s).
| Time | Temp. | Humidity | Pressure | Rain* | Wind** | Luminosity | Snow |
|---|---|---|---|---|---|---|---|
| 1777745858 | 21.11° C | 27% | 933.4 hPa | 0 mm | - | 860 W/m² | - |
| 1777745557 | 21.11° C | 27% | 933.5 hPa | 0 mm | - | 797 W/m² | - |
| 1777745254 | 21.11° C | 28% | 933.6 hPa | 0 mm | - | 832 W/m² | - |
| 1777744952 | 21.11° C | 27% | 933.6 hPa | 0 mm | - | 888 W/m² | - |
| 1777744651 | 21.11° C | 31% | 933.6 hPa | 0 mm | - | 837 W/m² | - |
| 1777744346 | 21.67° C | 26% | 933.6 hPa | 0 mm | - | 698 W/m² | - |
| 1777744044 | 21.67° C | 28% | 933.6 hPa | 0 mm | - | 869 W/m² | - |
| 1777743741 | 21.11° C | 26% | 933.7 hPa | 0 mm | - | 912 W/m² | - |
| 1777743438 | 21.11° C | 25% | 933.5 hPa | 0 mm | - | 887 W/m² | - |
| 1777743135 | 20.56° C | 24% | 933.7 hPa | 0 mm | - | 814 W/m² | - |
| 1777742833 | 20.56° C | 26% | 933.6 hPa | 0 mm | - | 772 W/m² | - |
| 1777742529 | 21.11° C | 24% | 933.6 hPa | 0 mm | - | 593 W/m² | - |
| 1777742225 | 21.11° C | 25% | 933.5 hPa | 0 mm | - | 856 W/m² | - |
| 1777741922 | 21.11° C | 25% | 933.7 hPa | 0 mm | - | 840 W/m² | - |
| 1777741619 | 21.11° C | 25% | 933.6 hPa | 0 mm | - | 765 W/m² | - |
| 1777741316 | 21.11° C | 25% | 933.6 hPa | 0 mm | - | 789 W/m² | - |
| 1777741012 | 21.11° C | 25% | 933.6 hPa | 0 mm | - | 718 W/m² | - |
| 1777740709 | 21.11° C | 24% | 933.4 hPa | 0 mm | - | 776 W/m² | - |
| 1777740405 | 20.56° C | 24% | 933.6 hPa | 0 mm | - | 751 W/m² | - |
| 1777740102 | 20.56° C | 24% | 933.5 hPa | 0 mm | - | 636 W/m² | - |
| 1777739798 | 20° C | 25% | 933.6 hPa | 0 mm | - | 520 W/m² | - |
| 1777739495 | 20° C | 25% | 933.6 hPa | 0 mm | - | 544 W/m² | - |
| 1777739192 | 20° C | 25% | 933.7 hPa | 0 mm | - | 487 W/m² | - |
| 1777738889 | 20° C | 23% | 933.7 hPa | 0 mm | - | 554 W/m² | - |
| 1777738586 | 20° C | 24% | 933.6 hPa | 0 mm | - | 645 W/m² | - |
* Rain latest hour (hover to see other rain measurements)
** Current wind speed in m/s (hover to see current wind gust speed)